FW6114 Weather Reports


time (UTC)temp
F
wind
direction
speed
knots
gust
knots
rain 1hr
in
rain 24hr
in
rain mn
in
humidity
%
barometer
mb
20260508033046 39 311 0.0 0.0 0.00 0.00 0.00 84 1011.0
20260508031518 38 292 0.0 0.0 0.00 0.00 0.00 85 1011.3
20260508030104 39 292 0.0 0.0 0.00 0.00 0.00 83 1011.3
20260508024529 41 293 0.0 0.9 0.00 0.00 0.00 80 1011.5
20260508023021 41 329 0.0 3.5 0.00 0.00 0.00 81 1011.7
20260508021559 41 298 0.0 4.3 0.00 0.00 0.00 81 1011.8
20260508020104 40 309 0.9 5.2 0.00 0.00 0.00 83 1011.9
20260508014536 40 308 0.0 3.5 0.00 0.00 0.00 83 1011.9
20260508013005 40 272 0.0 0.0 0.00 0.00 0.00 84 1012.0
20260508011540 40 292 0.0 4.3 0.00 0.00 0.00 84 1012.0
20260508010024 40 309 0.0 3.5 0.00 0.00 0.00 84 1012.1
20260508004548 39 277 0.0 2.6 0.00 0.00 0.00 84 1012.2
20260508003021 40 274 0.0 0.9 0.00 0.00 0.00 82 1012.3
20260508001601 40 319 0.0 3.5 0.00 0.00 0.00 82 1012.5
20260508000031 41 266 0.0 2.6 0.00 0.00 0.00 82 1012.4
20260507234506 40 300 0.0 2.6 0.00 0.00 0.00 82 1012.6
20260507233044 41 327 0.0 3.5 0.00 0.00 0.00 81 1012.7
20260507231518 41 329 0.0 5.2 0.00 0.00 0.00 81 1012.7
20260507230056 42 344 0.9 7.0 0.00 0.00 0.00 80 1012.8
20260507224529 42 319 0.9 7.8 0.00 0.00 0.00 80 1012.8
20260507223002 43 294 1.7 6.1 0.00 0.00 0.00 79 1012.9
20260507221535 42 305 0.0 3.5 0.00 0.00 0.00 80 1012.9
20260507220005 42 323 0.0 6.1 0.00 0.00 0.00 82 1012.9
20260507214547 41 336 0.0 4.3 0.00 0.00 0.00 87 1012.9
20260507213015 40 346 0.0 0.0 0.00 0.00 0.00 89 1012.9
20260507211555 41 5 0.0 0.0 0.00 0.00 0.00 88 1012.7
20260507210023 43 57 0.0 0.0 0.00 0.00 0.00 87 1012.6
20260507204601 44 57 0.0 0.0 0.00 0.00 0.00 85 1012.5
20260507203036 45 57 0.0 0.0 0.00 0.00 0.00 86 1012.4
20260507201525 46 57 0.0 0.0 0.00 0.00 0.00 85 1012.1
20260507194538 47 129 0.0 2.6 0.00 0.00 0.00 81 1011.7
20260507193034 47 27 0.0 0.0 0.00 0.00 0.00 77 1011.7
20260507191522 48 344 0.0 1.7 0.00 0.00 0.00 69 1011.5
20260507190013 48 282 0.0 3.5 0.00 0.00 0.00 71 1011.2
20260507184551 49 285 0.0 0.0 0.00 0.00 0.00 70 1010.8
20260507183040 49 286 0.0 0.0 0.00 0.00 0.00 68 1010.6
20260507181501 50 283 0.0 0.0 0.00 0.00 0.00 66 1010.5
20260507180051 50 288 0.0 0.0 0.00 0.00 0.00 67 1010.5
20260507174518 51 288 0.0 0.0 0.00 0.00 0.00 66 1010.5
20260507173054 51 288 0.0 0.0 0.00 0.00 0.00 66 1010.5
20260507171526 51 288 0.0 1.7 0.00 0.00 0.00 63 1010.4
20260507170019 51 276 0.0 3.5 0.00 0.00 0.00 62 1010.3
20260507164513 52 286 0.0 4.3 0.00 0.00 0.00 65 1010.1
20260507163009 51 316 0.0 2.6 0.00 0.00 0.00 66 1009.9
20260507161544 51 330 0.0 3.5 0.00 0.00 0.00 67 1009.6
20260507160034 51 270 0.0 2.6 0.00 0.00 0.00 69 1009.6
20260507154556 51 308 0.0 5.2 0.00 0.00 0.00 67 1009.5
20260507153035 52 273 0.9 7.0 0.00 0.00 0.00 65 1009.8
20260507151506 52 287 0.0 4.3 0.00 0.00 0.00 65 1010.0
20260507150043 52 278 0.0 8.7 0.00 0.00 0.00 66 1010.0
20260507144537 51 15 0.9 7.8 0.00 0.00 0.00 67 1010.1
20260507143030 51 313 0.0 9.6 0.00 0.00 0.00 66 1010.2
20260507141523 53 322 2.6 10.4 0.00 0.00 0.00 63 1010.3
20260507140019 54 306 0.9 7.8 0.00 0.00 0.00 64 1010.3
20260507134516 54 316 0.0 5.2 0.00 0.00 0.00 60 1010.3
20260507133009 56 272 0.0 5.2 0.00 0.00 0.00 55 1010.2
20260507131548 55 271 0.9 7.8 0.00 0.00 0.00 57 1010.2
20260507130026 55 272 0.0 6.1 0.00 0.00 0.00 61 1010.6
20260507124518 54 306 2.6 10.4 0.00 0.00 0.00 60 1010.7
20260507123050 53 292 0.9 7.8 0.00 0.00 0.00 65 1010.7
20260507121522 53 285 2.6 11.3 0.00 0.00 0.00 64 1010.8
20260507114553 51 286 0.0 4.3 0.00 0.00 0.00 67 1011.1
20260507113036 49 286 0.0 2.6 0.00 0.00 0.00 68 1011.3
20260507111531 49 282 0.9 5.2 0.00 0.00 0.00 64 1011.6
20260507110030 50 299 0.9 10.4 0.00 0.00 0.00 63 1011.5
20260507104524 52 298 0.0 9.6 0.00 0.00 0.00 64 1011.4
20260507103014 52 278 0.9 7.0 0.00 0.00 0.00 65 1011.3
20260507101508 50 273 1.7 9.6 0.00 0.00 0.00 64 1011.2
20260507100037 50 299 0.9 10.4 0.00 0.00 0.00 64 1011.3
20260507094507 50 260 1.7 9.6 0.00 0.00 0.00 65 1011.3
20260507093045 50 296 0.9 10.4 0.00 0.00 0.00 66 1011.0
20260507091543 50 316 1.7 9.6 0.00 0.00 0.00 63 1010.7
20260507090034 52 282 1.7 10.4 0.00 0.00 0.00 60 1010.9
20260507084509 54 290 1.7 10.4 0.00 0.00 0.00 60 1010.8
20260507083045 53 273 2.6 10.4 0.00 0.00 0.00 57 1010.7
20260507081521 52 269 1.7 9.6 0.00 0.00 0.00 58 1010.7
20260507080056 52 288 1.7 7.8 0.00 0.00 0.00 59 1010.8
20260507074527 50 227 1.7 8.7 0.00 0.00 0.00 60 1010.9
20260507073102 49 294 0.0 7.0 0.00 0.00 0.00 62 1011.0
20260507071537 48 257 0.0 8.7 0.00 0.00 0.00 61 1011.1
20260507070025 47 204 0.0 5.2 0.00 0.00 0.00 63 1011.1
20260507064517 46 269 0.9 7.0 0.00 0.00 0.00 64 1011.1
20260507063059 46 289 0.9 8.7 0.00 0.00 0.00 62 1011.2
20260507061531 45 275 1.7 8.7 0.00 0.00 0.00 65 1011.2
20260507060034 44 316 1.7 7.0 0.00 0.00 0.00 67 1011.1
20260507054505 44 317 0.0 5.2 0.00 0.00 0.00 68 1011.0
20260507053045 43 275 0.9 6.1 0.00 0.00 0.00 69 1011.2
20260507051519 43 286 0.9 7.8 0.00 0.00 0.00 68 1011.0
20260507050052 43 307 2.6 10.4 0.00 0.00 0.00 69 1011.1
20260507044544 43 293 0.0 7.8 0.00 0.00 0.00 69 1011.1
20260507043039 42 300 0.9 7.8 0.00 0.00 0.00 71 1011.2
20260507041515 41 271 0.0 5.2 0.00 0.00 0.00 74 1011.3
20260507040050 41 267 0.0 5.2 0.00 0.00 0.00 74 1011.4
20260507034542 41 299 0.0 6.1 0.00 0.00 0.00 75 1011.6